Tracking 29892 objects as of 21-Nov-2024
HD Live streaming from Space Station
objects crossing your sky now

ONEWEB-0386

Track ONEWEB-0386 now!
10-day predictions
ONEWEB-0386 is classified as:


NORAD ID: 49312
Int'l Code: 2021-090AK
Perigee: 1,187.3 km
Apogee: 1,190.6 km
Inclination: 87.9 °
Period: 109.0 minutes
Semi major axis: 7559 km
RCS: Unknown
Launch date: October 14, 2021
Source: United Kingdom (UK)
Launch site: VOSTOCHNY COSMODROME (VOSTO)
Your satellite tracking list
Your tracking list is empty




NASA's NSSDC Master Catalog

Two Line Element Set (TLE):
1 49312U 21090AK  24325.14596510  .00000055  00000-0  10408-3 0  9994
2 49312  87.9274  28.6355 0002190 103.6700 256.4677 13.20770418154040
Source of the keplerian elements: AFSPC